Total_Precipitation_Accumulation
0.78 0.78 0.78 0.76 0.74 0.74 0.74 0.71 0.73 0.78 0.79 0.82 0.96 1.03 1.10 1.18 1.34 1.59 1.76 1.77 1.69 1.67 1.65 1.71 1.85 1.96 2.18 2.16 2.06 1.94 1.78 1.58 1.40 1.24 1.02 0.82 0.86 0.90 0.96 0.91 0.83 0.77 0.65
0.88 0.86 0.78 0.70 0.67 0.67 0.64 0.57 0.57 0.55 0.54 0.66 0.78 0.83 0.88 0.93 1.09 1.38 1.58 1.61 1.56 1.46 1.43 1.51 1.72 1.91 2.12 2.22 2.17 2.03 1.90 1.75 1.61 1.50 1.31 1.05 0.92 0.92 1.02 1.08 1.01 0.95 0.88
0.92 0.82 0.74 0.68 0.59 0.55 0.49 0.45 0.51 0.51 0.57 0.66 0.75 0.80 0.84 0.89 0.92 1.02 1.18 1.29 1.27 1.22 1.23 1.26 1.29 1.47 1.73 1.93 1.98 1.99 2.01 1.97 1.89 1.71 1.47 1.30 1.15 1.01 1.02 1.06 1.03 1.08 1.02
1.06 0.96 0.85 0.73 0.62 0.56 0.49 0.45 0.43 0.45 0.51 0.57 0.61 0.69 0.79 0.84 0.83 0.83 0.87 0.94 0.95 0.99 1.03 1.09 1.11 1.12 1.28 1.45 1.59 1.79 2.00 1.99 1.97 1.88 1.64 1.40 1.24 1.12 1.13 1.14 1.14 1.13 1.11
1.08 1.07 0.93 0.74 0.61 0.54 0.50 0.43 0.40 0.41 0.42 0.48 0.53 0.56 0.63 0.70 0.76 0.76 0.67 0.66 0.73 0.80 0.84 0.84 0.85 0.92 1.04 1.11 1.18 1.50 1.81 1.93 1.90 1.85 1.73 1.53 1.28 1.18 1.08 1.05 1.15 1.32 1.32
0.99 0.97 0.75 0.58 0.46 0.41 0.41 0.39 0.35 0.34 0.39 0.44 0.44 0.47 0.56 0.58 0.68 0.66 0.52 0.52 0.56 0.66 0.75 0.74 0.67 0.67 0.73 0.77 0.85 1.01 1.25 1.46 1.66 1.80 1.76 1.56 1.36 1.22 1.16 1.18 1.20 1.26 1.32
0.64 0.60 0.51 0.40 0.38 0.41 0.43 0.37 0.34 0.34 0.35 0.38 0.39 0.40 0.46 0.57 0.58 0.42 0.40 0.44 0.52 0.58 0.66 0.73 0.66 0.56 0.61 0.65 0.75 0.83 0.83 0.89 1.13 1.41 1.55 1.53 1.57 1.39 1.31 1.24 1.19 1.23 1.26
0.40 0.40 0.34 0.30 0.31 0.34 0.35 0.34 0.40 0.44 0.42 0.42 0.44 0.44 0.44 0.49 0.46 0.33 0.34 0.38 0.46 0.53 0.63 0.72 0.77 0.68 0.67 0.76 0.77 0.79 0.74 0.70 0.86 0.88 1.05 1.33 1.46 1.49 1.42 1.45 1.57 1.51 1.37
0.12 0.13 0.12 0.12 0.13 0.14 0.16 0.22 0.33 0.40 0.42 0.44 0.48 0.48 0.43 0.40 0.39 0.30 0.29 0.38 0.46 0.53 0.56 0.62 0.69 0.66 0.78 0.85 0.84 0.95 0.92 0.82 0.92 0.96 0.99 1.02 1.10 1.18 1.28 1.34 1.41 1.47 1.44
0.01 0.01 0.01 0.02 0.02 0.04 0.06 0.09 0.15 0.19 0.24 0.32 0.34 0.38 0.41 0.38 0.46 0.33 0.32 0.38 0.49 0.60 0.64 0.63 0.76 0.75 0.78 0.76 0.74 0.95 0.97 0.87 0.78 0.83 0.83 0.80 0.73 0.79 0.95 1.09 1.27 1.33 1.28
0.00 0.00 0.00 0.00 0.00 0.01 0.02 0.03 0.06 0.08 0.12 0.17 0.21 0.27 0.34 0.39 0.46 0.43 0.46 0.48 0.54 0.68 0.70 0.63 0.58 0.66 0.56 0.60 0.64 0.68 0.88 0.88 0.78 0.81 0.82 0.76 0.69 0.69 0.75 0.85 1.04 1.19 1.19
0.00 0.00 0.00 0.00 0.00 0.01 0.01 0.02 0.02 0.03 0.06 0.09 0.11 0.16 0.22 0.27 0.33 0.38 0.38 0.41 0.47 0.60 0.68 0.57 0.55 0.61 0.47 0.45 0.47 0.57 0.69 0.79 0.77 0.80 0.79 0.77 0.70 0.62 0.63 0.70 0.77 0.81 0.81
0.00 0.00 0.00 0.00 0.01 0.01 0.01 0.01 0.02 0.03 0.05 0.06 0.09 0.15 0.21 0.28 0.29 0.25 0.22 0.24 0.29 0.43 0.49 0.50 0.50 0.47 0.43 0.41 0.42 0.47 0.54 0.63 0.77 0.77 0.70 0.68 0.61 0.57 0.55 0.55 0.61 0.66 0.67
0.00 0.00 0.00 0.01 0.01 0.01 0.02 0.03 0.03 0.04 0.05 0.09 0.14 0.19 0.23 0.26 0.28 0.25 0.26 0.28 0.27 0.32 0.34 0.34 0.37 0.40 0.43 0.42 0.40 0.43 0.50 0.59 0.63 0.60 0.55 0.53 0.54 0.55 0.59 0.58 0.59 0.63 0.68
0.00 0.00 0.00 0.00 0.01 0.01 0.01 0.01 0.02 0.03 0.04 0.10 0.17 0.21 0.21 0.21 0.15 0.14 0.24 0.34 0.40 0.46 0.53 0.49 0.50 0.50 0.47 0.42 0.39 0.40 0.43 0.47 0.47 0.44 0.42 0.39 0.37 0.42 0.48 0.51 0.53 0.53 0.56
0.00 0.00 0.00 0.00 0.01 0.01 0.01 0.01 0.01 0.02 0.05 0.07 0.07 0.09 0.10 0.09 0.09 0.10 0.16 0.26 0.34 0.45 0.60 0.66 0.69 0.70 0.64 0.53 0.43 0.37 0.32 0.33 0.35 0.37 0.38 0.37 0.35 0.36 0.40 0.41 0.43 0.42 0.43
0.00 0.00 0.00 0.00 0.01 0.01 0.02 0.04 0.05 0.04 0.02 0.01 0.01 0.02 0.08 0.15 0.19 0.23 0.24 0.28 0.31 0.42 0.61 0.68 0.69 0.67 0.59 0.52 0.47 0.38 0.32 0.28 0.29 0.30 0.29 0.30 0.31 0.32 0.35 0.34 0.33 0.34 0.34
0.00 0.00 0.01 0.03 0.05 0.05 0.05 0.09 0.13 0.17 0.14 0.07 0.01 0.01 0.04 0.12 0.15 0.18 0.25 0.37 0.39 0.45 0.53 0.54 0.53 0.42 0.33 0.29 0.26 0.22 0.18 0.18 0.20 0.19 0.18 0.19 0.21 0.22 0.23 0.25 0.28 0.31 0.32
0.00 0.01 0.03 0.07 0.09 0.07 0.08 0.13 0.14 0.10 0.08 0.07 0.04 0.02 0.01 0.04 0.06 0.08 0.16 0.34 0.36 0.30 0.25 0.21 0.19 0.16 0.12 0.11 0.10 0.10 0.09 0.08 0.08 0.08 0.07 0.08 0.10 0.12 0.14 0.17 0.20 0.24 0.27
0.00 0.00 0.02 0.07 0.09 0.07 0.07 0.08 0.07 0.05 0.03 0.04 0.04 0.04 0.04 0.05 0.07 0.08 0.09 0.14 0.13 0.09 0.07 0.07 0.07 0.05 0.05 0.05 0.05 0.04 0.04 0.04 0.05 0.05 0.05 0.05 0.06 0.08 0.10 0.14 0.17 0.20 0.22
0.00 0.00 0.01 0.03 0.05 0.04 0.04 0.04 0.03 0.03 0.02 0.03 0.02 0.01 0.03 0.07 0.08 0.07 0.07 0.06 0.05 0.04 0.04 0.06 0.04 0.03 0.03 0.04 0.04 0.04 0.04 0.05 0.04 0.04 0.04 0.05 0.06 0.08 0.10 0.14 0.19 0.22 0.23
0.00 0.01 0.03 0.05 0.05 0.03 0.03 0.04 0.06 0.04 0.03 0.03 0.03 0.02 0.03 0.06 0.07 0.06 0.06 0.06 0.04 0.04 0.06 0.08 0.08 0.06 0.05 0.05 0.05 0.05 0.05 0.05 0.05 0.05 0.05 0.05 0.05 0.06 0.08 0.12 0.16 0.20 0.25
0.01 0.02 0.03 0.05 0.05 0.03 0.04 0.05 0.06 0.05 0.03 0.03 0.04 0.04 0.04 0.06 0.06 0.07 0.07 0.08 0.08 0.09 0.08 0.09 0.11 0.10 0.08 0.07 0.08 0.08 0.08 0.07 0.07 0.07 0.07 0.07 0.07 0.08 0.09 0.10 0.11 0.14 0.18
0.02 0.02 0.03 0.05 0.06 0.05 0.05 0.07 0.07 0.04 0.04 0.05 0.05 0.05 0.06 0.06 0.05 0.04 0.05 0.06 0.08 0.10 0.08 0.08 0.08 0.08 0.07 0.08 0.09 0.10 0.13 0.13 0.09 0.08 0.08 0.09 0.10 0.10 0.13 0.15 0.19 0.21 0.22
0.02 0.03 0.03 0.05 0.05 0.04 0.04 0.05 0.06 0.05 0.05 0.05 0.04 0.04 0.04 0.04 0.03 0.03 0.04 0.05 0.07 0.08 0.07 0.07 0.08 0.07 0.06 0.06 0.08 0.09 0.15 0.17 0.14 0.12 0.10 0.09 0.11 0.14 0.18 0.25 0.31 0.33 0.34
0.03 0.03 0.04 0.04 0.04 0.04 0.04 0.04 0.05 0.05 0.04 0.04 0.03 0.04 0.04 0.04 0.03 0.02 0.03 0.03 0.04 0.05 0.04 0.05 0.07 0.06 0.06 0.07 0.08 0.12 0.16 0.15 0.14 0.13 0.09 0.08 0.10 0.13 0.15 0.17 0.21 0.26 0.30